[[{"header":{"parameterUnit":"m.s-1","parameterCategory":1,"la1":30.2991,"la2":30.254,"lo1":-89.0895,"lo2":-89.0444,"dy":0.0017,"dx":0.0017,"nx":28,"ny":28,"refTime":"2023-08-05T09:00:00:Z","depth":0,"parameterNumber":2,"parameterNumberName":"U-component_of_WINDS"},"data":[0,0,0,0,0,0,0,0,0,0,0,0,0,0,0,0,0,0,0,0,0,0,0,0,0,0,0,0,0,0,0,0,0,0,0,0,0,0,0,0,0,0,0,0,0,0,0,0,0,0,0,0,0,0,0,0,0,0,2.3547,2.3548,0,2.3636,2.3637,2.3638,2.3625,2.3623,2.3621,2.362,2.3718,2.3721,2.3725,0,0,0,0,0,0,0,0,0,0,0,0,0,2.3373,2.3376,2.3547,2.3548,2.3549,2.3636,2.3637,2.3638,2.3625,2.3623,2.3621,2.3619,2.3716,2.3721,2.3726,0,0,0,0,0,0,0,0,0,0,0,0,0,2.3454,2.3377,2.3547,2.3553,2.3554,2.3636,2.3637,2.3639,2.3625,2.3623,2.3621,2.3618,2.3715,2.3721,2.3726,2.3809,0,0,2.3745,2.3747,0,0,0,0,0,0,0,0,2.345,2.3461,2.3551,2.3553,2.3554,2.3617,2.3611,2.3696,2.3626,2.3598,2.362,2.3617,2.3686,2.3695,2.3716,2.3814,2.3818,2.3745,2.3749,2.3752,2.3753,0,0,0,0,0,0,0,2.3444,2.3457,2.3582,2.3552,2.3554,2.3554,2.3562,2.3627,2.3654,2.3601,2.36,2.361,2.3687,2.3711,2.3719,2.382,2.3745,2.3751,2.3754,2.3757,2.3994,2.3996,0,0,0,0,0,0,2.3436,2.3452,2.358,2.3585,2.3495,2.3558,2.3569,2.3599,2.3654,2.366,2.3612,2.3609,2.3701,2.3712,2.3722,2.3825,2.3752,2.3757,2.3761,2.3991,2.3994,2.3997,0,0,0,0,0,0,2.3432,2.3447,2.3576,2.3518,2.3535,2.3564,2.3598,2.3602,2.3626,2.3662,2.3668,2.3631,2.37,2.3714,2.3788,2.3828,2.376,2.3765,2.3988,2.3992,2.3996,2.4031,0,0,0,0,0,0,2.3427,2.3446,2.3476,2.3519,2.3538,2.3639,2.3601,2.3605,2.3635,2.3633,2.3681,2.3687,2.3699,2.3779,2.3794,2.3836,2.377,2.3984,2.399,2.3994,2.4027,2.4036,2.4044,0,0,0,0,0,2.3421,2.3483,2.3477,2.3493,2.3576,2.3641,2.3652,2.3663,2.3639,2.3671,2.3694,2.3686,2.3821,2.3787,2.3804,2.3847,2.3982,2.3988,2.3994,2.4023,2.4034,2.4044,0,0,0,0,0,0,2.3446,2.3489,2.3483,2.3561,2.3597,2.3638,2.3679,2.3674,2.3719,2.3715,2.3728,2.374,2.3816,2.3839,2.38,2.3932,2.3899,2.3908,2.3915,2.3926,2.3934,2.3928,2.3775,0,0,0,0,0,2.346,2.3507,2.3543,2.3608,2.3626,2.3649,2.3678,2.3683,2.3722,2.3738,2.3767,2.3808,2.386,2.3894,2.3943,2.4029,2.4042,2.4068,2.4076,2.4083,2.4092,2.4143,2.4156,2.4017,2.4017,2.4017,0,0,2.349,2.352,2.3549,2.3614,2.3642,2.3694,2.3663,2.3717,2.3757,2.3747,2.382,2.3843,2.3889,2.397,2.4008,2.3992,2.4133,2.4091,2.4096,2.4102,2.4151,2.4164,2.4175,2.4021,2.402,2.402,0,0,2.3572,2.3598,2.3656,2.3686,2.3729,2.3744,2.3758,2.3801,2.3815,2.3887,2.3882,2.393,2.4018,2.4052,2.4081,2.4178,2.4173,2.4193,2.424,2.4289,2.43,2.431,2.4347,2.436,2.4202,2.4202,2.4202,0,2.3605,2.368,2.3687,2.3744,2.3774,2.3766,2.3827,2.3856,2.3914,2.3936,2.3917,2.4029,2.4059,2.415,2.4174,2.4196,2.4215,2.4189,2.4297,2.4307,2.4316,2.4352,2.4366,2.4204,2.4204,2.4204,2.4204,0,2.372,2.3773,2.3815,2.387,2.3905,2.3963,2.3982,2.4016,2.4019,2.4037,2.4113,2.4148,2.4206,2.4228,2.4231,2.432,2.4309,2.4293,2.426,2.4332,2.4366,2.438,2.4208,2.4207,2.4206,2.4206,0,0,2.3821,2.388,2.3896,2.3922,2.397,2.4012,2.4071,2.4125,2.4157,2.4197,2.425,2.4325,2.4311,2.4344,2.4351,2.4393,2.4472,2.4373,2.4374,2.4392,2.4576,2.4589,2.4605,2.4467,2.447,2.4472,2.4573,0,2.391,2.4013,2.4022,2.4115,2.4166,2.4159,2.4211,2.4248,2.4267,2.4314,2.4335,2.439,2.4365,2.4386,2.4427,2.4453,2.4509,2.4445,2.452,2.4522,2.4511,2.4622,2.4637,2.473,2.4586,2.4588,2.459,0,2.4028,2.4071,2.4169,2.4212,2.4233,2.428,2.4332,2.4376,2.4419,2.443,2.4467,2.4468,2.4533,2.4495,2.4586,2.4543,2.4573,2.4591,2.4595,2.4604,2.4562,2.4638,2.476,2.4775,2.461,2.4609,2.4607,0,2.4096,2.4178,2.4248,2.427,2.4321,2.4355,2.4378,2.4418,2.4451,2.4497,2.452,2.4573,2.4604,2.4646,2.4664,2.4634,2.4755,2.4718,2.4769,2.4769,2.4796,2.4795,2.4928,2.4812,2.4811,2.4811,2.4811,0,2.4196,2.4257,2.428,2.4323,2.4392,2.4403,2.4472,2.4494,2.453,2.4579,2.4577,2.4624,2.4643,2.4694,2.4708,2.4783,2.4796,2.4809,2.4813,2.4811,2.481,2.4833,2.4828,2.4815,2.4814,2.4813,2.4813,0,2.4284,2.4301,2.4378,2.4419,2.4431,2.4481,2.4518,2.4562,2.4579,2.4643,2.4658,2.4687,2.4747,2.4768,2.4842,2.4851,2.4939,2.4936,2.4924,2.4926,2.4977,2.4973,2.5131,2.5154,2.502,2.5022,2.5023,0,2.4348,2.4395,2.4442,2.4474,2.4498,2.455,2.4583,2.4596,2.4632,2.4685,2.4723,2.4782,2.483,2.4927,2.4957,2.5014,2.5014,2.5065,2.5022,2.502,2.5018,2.5016,2.5023,2.5074,2.5076,2.5077,2.5078,0,2.4461,2.4468,2.4515,2.4566,2.4606,2.4648,2.4688,2.4715,2.4734,2.4775,2.4836,2.4873,2.4947,2.5008,2.5066,2.5093,2.509,2.509,2.5106,2.5106,2.5099,2.5106,2.4949,2.5087,2.5086,2.5086,2.5085,2.5085,2.4542,2.4584,2.4624,2.4677,2.4709,2.4747,2.479,2.4813,2.4863,2.4924,2.4929,2.4995,2.5039,2.5116,2.5146,2.52,2.5186,2.5207,2.5213,2.5219,2.5225,2.5087,2.521,2.521,2.521,2.521,2.521,0,2.4657,2.4682,2.4731,2.4787,2.4831,2.4821,2.4865,2.4903,2.4961,2.5001,2.5048,2.5119,2.5178,2.5212,2.5271,2.5308,2.5309,2.5324,2.5323,2.533,2.5232,2.5214,2.5322,2.5322,2.5322,2.5322,2.5322,2.5322,2.4722,2.4794,2.4806,2.4894,2.492,2.4983,2.501,2.5046,2.5078,2.5157,2.5205,2.5226,2.5265,2.5327,2.5381,2.539,2.5414,2.5431,2.5438,2.5347,2.5336,2.5325,2.5308,2.5435,2.5435,2.5532,2.5533,2.5533]},{"header":{"parameterUnit":"m.s-1","parameterCategory":1,"la1":30.2991,"la2":30.254,"lo1":-89.0895,"lo2":-89.0444,"dy":0.0017,"dx":0.0017,"nx":28,"ny":28,"refTime":"2023-08-05T09:00:00:Z","depth":0,"parameterNumber":3,"parameterNumberName":"V-component_of_WINDS"},"data":[0,0,0,0,0,0,0,0,0,0,0,0,0,0,0,0,0,0,0,0,0,0,0,0,0,0,0,0,0,0,0,0,0,0,0,0,0,0,0,0,0,0,0,0,0,0,0,0,0,0,0,0,0,0,0,0,0,0,1.4495,1.4495,0,1.4535,1.4535,1.4536,1.4526,1.4525,1.4525,1.4524,1.4564,1.4566,1.4567,0,0,0,0,0,0,0,0,0,0,0,0,0,1.4408,1.441,1.4495,1.4495,1.4496,1.4535,1.4535,1.4536,1.4526,1.4525,1.4524,1.4524,1.4563,1.4565,1.4567,0,0,0,0,0,0,0,0,0,0,0,0,0,1.4447,1.441,1.4495,1.4496,1.4496,1.4534,1.4535,1.4536,1.4527,1.4525,1.4524,1.4523,1.4563,1.4565,1.4568,1.4607,0,0,1.4576,1.4577,0,0,0,0,0,0,0,0,1.4444,1.445,1.4495,1.4496,1.4497,1.4524,1.4519,1.456,1.4527,1.4515,1.4524,1.4523,1.4552,1.4555,1.4565,1.4609,1.4611,1.4576,1.4578,1.4579,1.458,0,0,0,0,0,0,0,1.4442,1.4448,1.4511,1.4496,1.4497,1.4493,1.4498,1.4527,1.4539,1.4516,1.4515,1.452,1.4552,1.4562,1.4566,1.4611,1.4576,1.4578,1.458,1.4581,1.4685,1.4686,0,0,0,0,0,0,1.4439,1.4446,1.4509,1.4512,1.4467,1.4496,1.4501,1.4517,1.4539,1.4541,1.4521,1.452,1.4558,1.4563,1.4567,1.4612,1.4579,1.4581,1.4583,1.4684,1.4685,1.4687,0,0,0,0,0,0,1.4437,1.4445,1.4508,1.4479,1.4486,1.4499,1.4517,1.4518,1.4529,1.4543,1.4545,1.453,1.4558,1.4563,1.4596,1.4613,1.4583,1.4585,1.4683,1.4684,1.4686,1.4703,0,0,0,0,0,0,1.4435,1.4444,1.446,1.4479,1.4488,1.4537,1.4518,1.452,1.4533,1.4532,1.4552,1.4554,1.4557,1.4592,1.4599,1.4616,1.4587,1.4681,1.4683,1.4685,1.4701,1.4705,1.4709,0,0,0,0,0,1.4432,1.4464,1.4461,1.4469,1.4508,1.4538,1.4543,1.4547,1.4535,1.455,1.4559,1.4553,1.4611,1.4596,1.4603,1.4622,1.468,1.4683,1.4685,1.4699,1.4704,1.4709,0,0,0,0,0,0,1.4447,1.4467,1.4463,1.4503,1.4519,1.4537,1.4556,1.4553,1.4572,1.457,1.4573,1.4578,1.461,1.462,1.4603,1.4659,1.4643,1.4648,1.4651,1.4656,1.466,1.4657,1.4589,0,0,0,0,0,1.4455,1.4478,1.4494,1.4527,1.4535,1.4544,1.4558,1.4559,1.4575,1.4582,1.4593,1.4609,1.463,1.4644,1.4665,1.4703,1.4705,1.4718,1.4722,1.4725,1.4729,1.4746,1.4751,1.4695,1.4695,1.4695,0,0,1.4472,1.4485,1.45,1.4531,1.4543,1.4565,1.455,1.4576,1.4592,1.4586,1.4617,1.4625,1.4643,1.4677,1.4693,1.4686,1.4745,1.4729,1.4731,1.4733,1.4749,1.4755,1.4759,1.4697,1.4697,1.4696,0,0,1.4513,1.4527,1.4555,1.4567,1.4586,1.4591,1.4597,1.4615,1.462,1.4652,1.4646,1.4665,1.4703,1.4715,1.4725,1.4768,1.4763,1.4775,1.4795,1.4812,1.4816,1.482,1.4833,1.4837,1.4778,1.4778,1.4778,0,1.4532,1.4566,1.457,1.4594,1.4607,1.4602,1.4628,1.464,1.4665,1.4673,1.4664,1.4709,1.4721,1.4756,1.4766,1.4776,1.4782,1.4772,1.4815,1.4819,1.4823,1.4835,1.484,1.4779,1.4779,1.4779,1.4779,0,1.4586,1.461,1.463,1.4652,1.4667,1.4693,1.4699,1.4713,1.4713,1.4718,1.4748,1.4762,1.4784,1.4793,1.4793,1.4827,1.4822,1.4815,1.4799,1.4829,1.484,1.4845,1.4781,1.4781,1.478,1.478,0,0,1.464,1.4662,1.4669,1.4677,1.4696,1.4714,1.4739,1.476,1.4771,1.4787,1.4806,1.4837,1.4829,1.4841,1.4842,1.4858,1.4887,1.4848,1.4848,1.4852,1.4923,1.4927,1.4932,1.4884,1.4885,1.4886,1.492,0,1.4681,1.4724,1.4726,1.4765,1.4785,1.4779,1.48,1.4813,1.4819,1.4836,1.4842,1.4862,1.4852,1.4859,1.4874,1.488,1.4901,1.4878,1.49,1.4901,1.4894,1.4939,1.4944,1.4976,1.4925,1.4926,1.4927,0,1.4735,1.4752,1.4792,1.4805,1.4814,1.4833,1.485,1.4867,1.4881,1.4884,1.4896,1.4894,1.4917,1.4902,1.4932,1.4917,1.4926,1.493,1.4931,1.4932,1.4914,1.4939,1.4987,1.4991,1.4934,1.4933,1.4933,0,1.4766,1.4799,1.4827,1.4835,1.4852,1.4864,1.4872,1.4884,1.4896,1.4911,1.4918,1.4936,1.4946,1.4959,1.4961,1.495,1.4991,1.4976,1.4992,1.4992,1.5,1.4999,1.5048,1.5009,1.5009,1.5009,1.5009,0,1.4811,1.4835,1.484,1.4857,1.4883,1.4885,1.4911,1.4917,1.4928,1.4945,1.4941,1.4957,1.496,1.4976,1.4978,1.5001,1.5006,1.5008,1.5008,1.5007,1.5007,1.5012,1.5009,1.501,1.501,1.501,1.5009,0,1.485,1.4855,1.4884,1.4897,1.49,1.4919,1.4929,1.4944,1.4949,1.497,1.4975,1.4981,1.5,1.5003,1.5026,1.5027,1.5054,1.5053,1.5049,1.5048,1.5063,1.5061,1.5116,1.5122,1.5081,1.5081,1.5081,0,1.4878,1.4896,1.491,1.492,1.4928,1.4946,1.4957,1.4959,1.497,1.4985,1.4998,1.5016,1.503,1.5059,1.5065,1.5081,1.5079,1.5097,1.5082,1.5079,1.5077,1.5075,1.5076,1.51,1.51,1.5101,1.5101,0,1.4925,1.4925,1.4941,1.4957,1.497,1.4983,1.4995,1.5004,1.5007,1.502,1.5038,1.5049,1.5071,1.5087,1.5103,1.511,1.5105,1.5106,1.511,1.5109,1.5105,1.5105,1.5055,1.5105,1.5104,1.5104,1.5104,1.5104,1.4957,1.4972,1.4983,1.5,1.5009,1.502,1.5034,1.5039,1.5054,1.5071,1.5072,1.5091,1.5102,1.5122,1.5129,1.5144,1.5138,1.5144,1.5146,1.5147,1.5147,1.5104,1.5147,1.5147,1.5147,1.5146,1.5146,0,1.5002,1.5008,1.5024,1.504,1.5053,1.5048,1.506,1.5071,1.5088,1.5098,1.5112,1.5131,1.5147,1.5154,1.5169,1.5179,1.5177,1.5182,1.5181,1.5182,1.5153,1.5146,1.5183,1.5183,1.5183,1.5183,1.5183,1.5183,1.5026,1.505,1.5051,1.5078,1.5085,1.5103,1.511,1.5119,1.5127,1.5149,1.5162,1.5166,1.5175,1.519,1.5203,1.5205,1.521,1.5216,1.5216,1.5188,1.5184,1.5181,1.5175,1.5217,1.5217,1.5244,1.5244,1.5244]}]]